Location: Camp at the Woods
(43.2055°N, 93.0905°W)
Time: 08:50:14
(UTC+00:00)

BlueWalker 3 - Pass Details

Date: 23 April 2024
Orbit: 482 x 494 km, 53.2° (Epoch: 22 May)

Event Time Altitude Azimuth Distance (km) Brightness Sun altitude
Rises 02:50:40 0° 280° (W) 2,572 6.6 -17.9°
Reaches altitude 10° 02:53:15 10° 297° (WNW) 1,694 5.8 -18.2°
Maximum altitude 02:56:13 21° 348° (NNW) 1,162 4.4 -18.7°
Drops below altitude 10° 02:59:12 10° 39° (NE) 1,701 4.6 -19.1°
Enters shadow 03:00:51 - 51° (NE) 2,247 5.1 -19.3°
